[[{"header":{"parameterUnit":"m.s-1","parameterCategory":1,"la1":30.2991,"la2":30.254,"lo1":-89.0895,"lo2":-89.0444,"dy":0.0017,"dx":0.0017,"nx":28,"ny":28,"refTime":"2025-05-22T03:00:00:Z","depth":0,"parameterNumber":2,"parameterNumberName":"U-component_of_WINDS"},"data":[0,0,0,0,0,0,0,0,0,0,0,0,0,0,0,0,0,0,0,0,0,0,0,0,0,0,0,0,0,0,0,0,0,0,0,0,0,0,0,0,0,0,0,0,0,0,0,0,0,0,0,0,0,0,0,0,0,0,-0.0075,-0.0073,0,0.0067,0.0068,0.007,0.0155,0.0155,0.0156,0.0156,0.0302,0.0305,0.0309,0,0,0,0,0,0,0,0,0,0,0,0,0,-0.027,-0.0267,-0.0075,-0.0073,-0.0071,0.0066,0.0068,0.007,0.0155,0.0155,0.0156,0.0156,0.0301,0.0305,0.0309,0,0,0,0,0,0,0,0,0,0,0,0,0,-0.0163,-0.0266,-0.0075,-0.0012,-0.0005,0.0066,0.0068,0.0071,0.0155,0.0155,0.0156,0.0156,0.0299,0.0304,0.0309,0.033,0,0,0.0325,0.0328,0,0,0,0,0,0,0,0,-0.0169,-0.0156,-0.0023,-0.0017,-0.0009,0.0094,0.0053,0.0158,0.0154,0.0094,0.0156,0.0157,0.0232,0.0243,0.0268,0.0337,0.0343,0.0326,0.0329,0.0331,0.0333,0,0,0,0,0,0,0,-0.0177,-0.0161,-0.0019,-0.0022,-0.0013,0.0009,0.0025,0.0073,0.0158,0.0099,0.0106,0.0121,0.0236,0.0263,0.0272,0.0345,0.0326,0.033,0.0334,0.0336,0.0438,0.0437,0,0,0,0,0,0,-0.0194,-0.0168,-0.0023,-0.0015,-0.0089,0.0012,0.003,0.006,0.0158,0.0173,0.012,0.0125,0.0253,0.0266,0.0278,0.0308,0.0331,0.0336,0.0339,0.0438,0.0438,0.0437,0,0,0,0,0,0,-0.0199,-0.0182,-0.0029,-0.0089,-0.0068,0.0015,0.0048,0.0063,0.0089,0.0174,0.0189,0.0132,0.0254,0.027,0.0316,0.0314,0.0339,0.0343,0.0439,0.0438,0.0437,0.0369,0,0,0,0,0,0,-0.0205,-0.0184,-0.0176,-0.009,-0.0066,0.0007,0.0048,0.0065,0.0098,0.0105,0.0189,0.0203,0.0256,0.0308,0.0321,0.0322,0.0348,0.0439,0.0438,0.0438,0.0372,0.0366,0.0361,0,0,0,0,0,-0.0212,-0.02,-0.0176,-0.0159,-0.0053,0.0007,0.0021,0.0081,0.0097,0.0107,0.0161,0.02,0.0312,0.0312,0.0328,0.033,0.044,0.0439,0.0438,0.0374,0.0367,0.0361,0,0,0,0,0,0,-0.0288,-0.0188,-0.016,-0.012,-0.0066,0.0021,0.0034,0.0072,0.0122,0.0127,0.02,0.0218,0.0257,0.0298,0.0296,0.0355,0.038,0.0383,0.0327,0.0321,0.0316,0.0305,0.0352,0,0,0,0,0,-0.0301,-0.0261,-0.0175,-0.0149,-0.0123,-0.0049,-0.0021,0.0021,0.008,0.0103,0.0161,0.0217,0.0265,0.0295,0.0344,0.0378,0.0398,0.0388,0.0382,0.0377,0.0379,0.04,0.0396,0.0434,0.0434,0.0434,0,0,-0.0326,-0.0266,-0.0245,-0.0162,-0.0116,-0.0075,-0.0031,0.001,0.0041,0.011,0.0157,0.0201,0.0268,0.0308,0.0329,0.0344,0.0372,0.0376,0.0372,0.0376,0.0399,0.0395,0.0392,0.0433,0.0433,0.0434,0,0,-0.035,-0.0302,-0.0274,-0.0228,-0.0158,-0.0109,-0.0102,-0.0021,0.0011,0.0059,0.0112,0.0149,0.023,0.0276,0.031,0.0302,0.0341,0.0316,0.0289,0.0308,0.0306,0.0303,0.0301,0.0299,0.0317,0.0317,0.0316,0,-0.039,-0.0328,-0.0264,-0.0227,-0.0192,-0.0128,-0.0099,-0.0057,0.0025,0.0048,0.0063,0.0166,0.0216,0.0268,0.0266,0.0291,0.0301,0.0307,0.0301,0.0299,0.0298,0.0296,0.0295,0.0313,0.0314,0.0314,0.0314,0,-0.038,-0.0338,-0.0324,-0.0246,-0.0209,-0.0177,-0.0108,-0.0078,-0.004,0.0007,0.0055,0.0117,0.018,0.0195,0.0233,0.0253,0.026,0.0287,0.0314,0.029,0.029,0.029,0.0308,0.031,0.0311,0.0311,0,0,-0.0448,-0.0336,-0.0332,-0.0296,-0.0214,-0.018,-0.0144,-0.0083,-0.0059,-0.0005,0.0027,0.0094,0.012,0.0158,0.0202,0.0219,0.0209,0.0245,0.0247,0.0236,0.0235,0.0214,0.0212,0.0235,0.0235,0.0235,0.0229,0,-0.0461,-0.0394,-0.0335,-0.0289,-0.0249,-0.0188,-0.0157,-0.0103,-0.0058,-0.0017,0.0033,0.0079,0.0109,0.0132,0.0152,0.0206,0.021,0.0207,0.0266,0.0267,0.0247,0.0212,0.0191,0.0182,0.0229,0.0229,0.0229,0,-0.0466,-0.0414,-0.0365,-0.0286,-0.0267,-0.024,-0.018,-0.0142,-0.008,-0.0048,-0.0006,0.004,0.0081,0.0103,0.016,0.0157,0.0184,0.0214,0.0216,0.0224,0.0247,0.022,0.0181,0.0179,0.023,0.023,0.023,0,-0.0521,-0.0439,-0.0398,-0.0369,-0.0277,-0.0259,-0.022,-0.0157,-0.0124,-0.0072,-0.005,0.0007,0.0038,0.0081,0.0141,0.0152,0.0192,0.0219,0.022,0.0218,0.0226,0.0225,0.0191,0.0243,0.0243,0.0243,0.0243,0,-0.054,-0.0512,-0.0421,-0.0396,-0.0363,-0.0296,-0.0265,-0.022,-0.0165,-0.013,-0.0074,-0.0042,0.0035,0.0075,0.0122,0.0163,0.0177,0.0203,0.0216,0.0199,0.0195,0.0218,0.022,0.0242,0.0242,0.0242,0.0242,0,-0.0596,-0.0533,-0.0485,-0.0402,-0.038,-0.0359,-0.0288,-0.0261,-0.0214,-0.017,-0.0156,-0.0081,-0.003,0.0034,0.0105,0.0137,0.0172,0.0191,0.0151,0.0158,0.0155,0.0155,0.0136,0.0137,0.0186,0.0185,0.0185,0,-0.0612,-0.0589,-0.0503,-0.0476,-0.0439,-0.0395,-0.0362,-0.0295,-0.0262,-0.019,-0.0172,-0.0117,-0.0069,0.0009,0.0071,0.0125,0.0146,0.0135,0.0155,0.0137,0.0146,0.0144,0.0147,0.013,0.0129,0.0129,0.0128,0,-0.0648,-0.0618,-0.0572,-0.0515,-0.0476,-0.0428,-0.0377,-0.0358,-0.0281,-0.0247,-0.0195,-0.0158,-0.0085,-0.0031,0.0032,0.0073,0.0113,0.0121,0.0125,0.0108,0.0084,0.0097,0.0138,0.0122,0.0123,0.0123,0.0123,0.0124,-0.0683,-0.066,-0.0596,-0.0546,-0.0501,-0.0455,-0.0426,-0.0375,-0.033,-0.0265,-0.0229,-0.0177,-0.0116,-0.0027,0.0012,0.0053,0.0068,0.0072,0.0074,0.0074,0.0069,0.0077,0.0065,0.0065,0.0065,0.0065,0.0066,0,-0.0716,-0.0672,-0.0627,-0.0558,-0.0518,-0.0484,-0.0426,-0.0396,-0.0351,-0.0297,-0.0251,-0.0191,-0.0138,-0.0073,-0.0016,0.0005,0.0025,0.0017,0.0017,0.0026,0.0052,0.0044,0.0,0.0,0.0,0.0,0.0,0.0,-0.0728,-0.0687,-0.065,-0.0585,-0.0541,-0.049,-0.046,-0.0417,-0.0373,-0.0308,-0.0264,-0.0222,-0.0164,-0.0102,-0.0052,-0.0034,-0.0016,-0.0029,-0.0005,0.0018,0.0024,0.0029,0.0022,-0.0025,-0.0025,-0.0035,-0.0035,-0.0035]},{"header":{"parameterUnit":"m.s-1","parameterCategory":1,"la1":30.2991,"la2":30.254,"lo1":-89.0895,"lo2":-89.0444,"dy":0.0017,"dx":0.0017,"nx":28,"ny":28,"refTime":"2025-05-22T03:00:00:Z","depth":0,"parameterNumber":3,"parameterNumberName":"V-component_of_WINDS"},"data":[0,0,0,0,0,0,0,0,0,0,0,0,0,0,0,0,0,0,0,0,0,0,0,0,0,0,0,0,0,0,0,0,0,0,0,0,0,0,0,0,0,0,0,0,0,0,0,0,0,0,0,0,0,0,0,0,0,0,3.0008,3.0007,0,2.9936,2.9935,2.9934,2.9933,2.9934,2.9935,2.9936,2.9855,2.9852,2.9849,0,0,0,0,0,0,0,0,0,0,0,0,0,3.0138,3.0136,3.0008,3.0007,3.0006,2.9936,2.9935,2.9934,2.9933,2.9934,2.9935,2.9936,2.9856,2.9852,2.9849,0,0,0,0,0,0,0,0,0,0,0,0,0,3.0075,3.0135,3.0008,2.9997,2.9996,2.9936,2.9935,2.9934,2.9933,2.9934,2.9935,2.9937,2.9857,2.9853,2.9848,2.9792,0,0,2.9834,2.9832,0,0,0,0,0,0,0,0,3.0079,3.007,3.0,2.9998,2.9996,2.9945,2.9951,2.9886,2.9932,2.9956,2.9936,2.9937,2.9883,2.9877,2.986,2.9788,2.9785,2.9834,2.9831,2.9829,2.9828,0,0,0,0,0,0,0,3.0083,3.0073,2.9979,2.9999,2.9996,2.9994,2.9986,2.9939,2.9912,2.9954,2.9954,2.9946,2.9882,2.9864,2.9858,2.9784,2.9834,2.983,2.9827,2.9825,2.9661,2.966,0,0,0,0,0,0,3.009,3.0077,2.9981,2.9977,3.0042,2.999,2.9982,2.996,2.9913,2.9908,2.9945,2.9946,2.9871,2.9863,2.9855,2.9786,2.9829,2.9825,2.9822,2.9663,2.9661,2.9659,0,0,0,0,0,0,3.0093,3.0082,2.9984,3.0027,3.0014,2.9987,2.9962,2.9958,2.994,2.9906,2.9901,2.9931,2.9872,2.9861,2.9808,2.9783,2.9823,2.9819,2.9665,2.9662,2.966,2.9647,0,0,0,0,0,0,3.0097,3.0083,3.0063,3.0027,3.0012,2.9941,2.996,2.9955,2.9933,2.9934,2.9892,2.9886,2.9872,2.9815,2.9804,2.9777,2.9815,2.9667,2.9664,2.9661,2.965,2.9644,2.964,0,0,0,0,0,3.0102,3.0061,3.0062,3.0051,2.9987,2.9939,2.9931,2.9917,2.9931,2.9909,2.9888,2.9888,2.9788,2.9809,2.9797,2.9769,2.9669,2.9665,2.9661,2.9652,2.9645,2.964,0,0,0,0,0,0,3.0093,3.0056,3.0057,3.0004,2.9975,2.9939,2.9912,2.9911,2.9876,2.9878,2.9861,2.9851,2.9798,2.9778,2.9803,2.9711,2.9729,2.9723,2.9727,2.972,2.9716,2.9721,2.9811,0,0,0,0,0,3.0085,3.0052,3.002,2.9976,2.9962,2.994,2.9918,2.9911,2.9879,2.9866,2.9841,2.9808,2.9769,2.9744,2.9706,2.9647,2.9637,2.9621,2.9617,2.9613,2.9607,2.9573,2.9565,2.9647,2.9647,2.9647,0,0,3.0068,3.0044,3.0023,2.9974,2.9951,2.9914,2.9929,2.989,2.9862,2.9859,2.9808,2.9788,2.975,2.9694,2.9667,2.9675,2.9582,2.9608,2.9606,2.9602,2.9568,2.9561,2.9554,2.9645,2.9645,2.9646,0,0,3.0018,2.9997,2.9958,2.9935,2.99,2.9886,2.9876,2.9841,2.9828,2.9777,2.9774,2.9739,2.9673,2.9646,2.9624,2.9564,2.9562,2.9552,2.9526,2.9493,2.9487,2.9481,2.9458,2.945,2.9546,2.9546,2.9546,0,3.0,2.9948,2.9937,2.9898,2.9876,2.9874,2.9833,2.981,2.9764,2.9747,2.9758,2.9674,2.9649,2.9585,2.9571,2.9553,2.954,2.9556,2.9489,2.9483,2.9477,2.9455,2.9447,2.9545,2.9545,2.9545,2.9545,0,2.9927,2.989,2.9862,2.9821,2.9795,2.9755,2.9736,2.9711,2.9705,2.9689,2.9636,2.9605,2.9561,2.9546,2.9539,2.9481,2.9487,2.9493,2.951,2.9469,2.9448,2.9439,2.9543,2.9544,2.9544,2.9544,0,0,2.9869,2.9822,2.9812,2.9793,2.9755,2.9725,2.9684,2.9643,2.9621,2.9589,2.9553,2.9498,2.9503,2.9478,2.9468,2.9439,2.9392,2.9449,2.9448,2.9438,2.9324,2.9319,2.931,2.9391,2.939,2.9389,2.9327,0,2.9814,2.9744,2.9733,2.967,2.9635,2.9633,2.9597,2.9569,2.9552,2.9518,2.9499,2.9459,2.9471,2.9455,2.9427,2.9404,2.9369,2.9408,2.9355,2.9354,2.9364,2.9299,2.9293,2.9237,2.9319,2.9318,2.9317,0,2.974,2.9709,2.9644,2.961,2.9595,2.9563,2.9525,2.9493,2.946,2.9449,2.9422,2.9415,2.937,2.9391,2.9327,2.9355,2.9332,2.9318,2.9315,2.9308,2.9332,2.929,2.9219,2.921,2.9304,2.9305,2.9306,0,2.9703,2.9644,2.9598,2.9581,2.9541,2.9519,2.95,2.9469,2.9445,2.941,2.9394,2.9354,2.9331,2.9299,2.9281,2.9298,2.9219,2.9238,2.9207,2.9208,2.919,2.9191,2.9113,2.9177,2.9177,2.9177,2.9178,0,2.9642,2.9602,2.958,2.9551,2.9506,2.9493,2.9447,2.9428,2.94,2.9366,2.9361,2.9328,2.9308,2.9271,2.9256,2.9205,2.9195,2.9184,2.9181,2.9184,2.9185,2.9168,2.9171,2.9175,2.9176,2.9176,2.9176,0,2.9593,2.9577,2.9526,2.9492,2.9483,2.9451,2.9421,2.9391,2.9375,2.9332,2.9321,2.9294,2.9251,2.9231,2.9177,2.9167,2.9109,2.9108,2.9121,2.9119,2.9089,2.9092,2.8997,2.8983,2.9057,2.9056,2.9056,0,2.9555,2.9524,2.9488,2.9466,2.9448,2.9412,2.9388,2.9374,2.9348,2.9308,2.9283,2.924,2.9206,2.9136,2.9111,2.9069,2.9067,2.9036,2.906,2.9065,2.9065,2.9067,2.9063,2.9032,2.9031,2.903,2.903,0,2.9488,2.9482,2.9449,2.9413,2.9385,2.9356,2.9326,2.9308,2.9288,2.9259,2.9217,2.919,2.9136,2.9093,2.9049,2.9028,2.9024,2.9023,2.9013,2.9016,2.9024,2.9018,2.9108,2.9025,2.9025,2.9026,2.9026,2.9026,2.9442,2.9415,2.9386,2.9349,2.9326,2.9298,2.9269,2.925,2.9215,2.9171,2.9164,2.9118,2.9084,2.9026,2.9003,2.8965,2.8972,2.8959,2.8955,2.8951,2.8949,2.9031,2.8958,2.8958,2.8958,2.8958,2.8958,0,2.9375,2.9357,2.9323,2.9283,2.9253,2.9256,2.9223,2.9198,2.9158,2.9128,2.9095,2.9045,2.9003,2.8974,2.8932,2.8907,2.8904,2.8896,2.8897,2.8891,2.8946,2.8959,2.8898,2.8898,2.8898,2.8898,2.8899,2.8899,2.9337,2.929,2.928,2.9221,2.9202,2.9159,2.914,2.9114,2.909,2.9035,2.9002,2.8984,2.8954,2.8909,2.887,2.8862,2.8846,2.8838,2.883,2.8881,2.8888,2.8894,2.8905,2.8834,2.8834,2.8778,2.8777,2.8777]}]]